Regional Weather Roundup
Issued by NWS

Home | Current Version | Previous Version | Text Only | Print | Product List | Glossary On
Versions: 1 2 3 4 5 6 7 8 9 10 11 12 13 14 15 16 17 18 19 20 21 22 23 24 25 26 27 28 29 30 31 32 33 34 35 36 37 38 39 40 41 42 43 44 45 46 47 48 49 50
000
ASUS43 KLSX 250510
RWRMO

WEATHER SUMMARY FOR MISSOURI
NATIONAL WEATHER SERVICE SPRINGFIELD MO
1200 AM CDT SUN SEP 25 2016

NOTE: "FAIR" INDICATES FEW OR NO CLOUDS BELOW 12,000 FEET WITH NO
       SIGNIFICANT WEATHER AND/OR OBSTRUCTIONS TO VISIBILITY.
       CURRENT SKY AND/OR WEATHER CONDITIONS ARE NOT AVAILABLE FOR
       CHILLICOTHE AND FARMINGTON.

MOZ001>031-035>038-043-044-053-054-250600-
...NORTHERN AND WESTERN MISSOURI...

CITY           SKY/WX    TMP DP  RH WIND       PRES   REMARKS
KANSAS CTY INT TSTM      69  66  90 W7        30.04R FOG
KANSAS C DTWN  CLOUDY    73  67  81 W9G18     30.03R
LEE`S SUMMIT   MOCLDY    77  69  76 S12       29.99F
ST JOSEPH      TSTM      69  67  93 SE5       30.02R
CHILLICOTHE      N/A     76  71  85 CALM      30.01S
KIRKSVILLE     CLOUDY    75  67  76 S10       30.03F

$$
MOZ066>068-077>081-088>096-101>105-250600-
...SOUTHWEST MISSOURI...

CITY           SKY/WX    TMP DP  RH WIND       PRES   REMARKS
SPRINGFIELD    CLEAR     76  66  71 S8        30.04S
JOPLIN         MOCLDY    75  68  78 S6          N/A
BRANSON        CLEAR     73  68  83 SE6       30.07S

$$
MOZ032>034-039>042-045>050-055>058-069>072-250600-
...CENTRAL MISSOURI...

CITY           SKY/WX    TMP DP  RH WIND       PRES   REMARKS
COLUMBIA       CLEAR     74  69  85 SE6       30.05S
JEFFERSON CITY CLEAR     73  69  87 CALM      30.03S
ROLLA          CLEAR     72  67  84 SE5       30.06S
SEDALIA        PTCLDY    75  69  81 SE7       30.02F
WHITEMAN AFB   CLOUDY    75  72  91 S8        29.99F
OSAGE BEACH    CLEAR     72  69  90 SE3       30.05S

$$
MOZ051-052-059>065-250600-
...EAST CENTRAL MISSOURI...

CITY           SKY/WX    TMP DP  RH WIND       PRES   REMARKS
ST LOUIS INTL  PTCLDY    77  67  71 E5        30.07R
SPIRIT OF STL  CLEAR     70  69  97 CALM      30.05R FOG
ST CHARLES     CLEAR     72  70  93 E7        30.05R

$$
MOZ072>076-082>087-097>100-106>115-250600-
...SOUTH CENTRAL AND SOUTHEAST MISSOURI...

CITY           SKY/WX    TMP DP  RH WIND       PRES   REMARKS
CAPE GIRARDEAU CLEAR     72  69  90 CALM      30.06R
FARMINGTON     CLEAR     69  67  93 CALM      30.09S
WEST PLAINS    CLEAR     72  66  81 CALM      30.09F

$$




USA.gov is the U.S. government's official web portal to all federal, state and local government web resources and services.